contact:dominique.lefevre@mio.osupytheas.fr, maurice.libes@osupytheas.fr, didier.mallarino@osupytheas.fr
Project:EMSO http://www.emso-fr.org/EMSO-France
Depth: 2436.0 m
Title:EMSO Ligure Ouest : Data MII capteur MICROCAT
DateTime_Computer,Latitude,Longitude,Temperature,Conductivity,Pressure,DateTime_Instrument
DateTime_Computer,Latitude,Longitude,degC,S m-1,dbar,DateTime_Instrument
2022-07-06T00:00:16Z,42.805,6.029,13.3011,4.60052,2470.693,2022-7-06T02:02:01Z
2022-07-06T00:03:19Z,42.805,6.029,13.3010,4.60049,2470.707,2022-7-06T02:05:04Z
2022-07-06T00:06:22Z,42.805,6.029,13.3012,4.60053,2470.67,2022-7-06T02:08:07Z
2022-07-06T00:09:25Z,42.805,6.029,13.3015,4.60049,2470.646,2022-7-06T02:11:11Z
2022-07-06T00:12:28Z,42.805,6.029,13.3019,4.60049,2470.693,2022-7-06T02:14:14Z
2022-07-06T00:15:31Z,42.805,6.029,13.3010,4.60059,2470.633,2022-7-06T02:17:17Z
2022-07-06T00:18:35Z,42.805,6.029,13.3011,4.60049,2470.693,2022-7-06T02:20:20Z
2022-07-06T00:21:38Z,42.805,6.029,13.3010,4.60046,2470.661,2022-7-06T02:23:23Z
2022-07-06T00:24:41Z,42.805,6.029,13.3017,4.60055,2470.684,2022-7-06T02:26:26Z
2022-07-06T00:27:44Z,42.805,6.029,13.3012,4.60052,2470.646,2022-7-06T02:29:29Z
2022-07-06T00:30:47Z,42.805,6.029,13.3014,4.60056,2470.646,2022-7-06T02:32:32Z
2022-07-06T00:33:50Z,42.805,6.029,13.3013,4.60051,2470.693,2022-7-06T02:35:36Z
2022-07-06T00:36:53Z,42.805,6.029,13.3017,4.60051,2470.693,2022-7-06T02:38:39Z
2022-07-06T00:39:56Z,42.805,6.029,13.3013,4.60050,2470.707,2022-7-06T02:41:42Z
2022-07-06T00:42:59Z,42.805,6.029,13.3011,4.60046,2470.717,2022-7-06T02:44:45Z
2022-07-06T00:46:03Z,42.805,6.029,13.3010,4.60048,2470.684,2022-7-06T02:47:48Z
2022-07-06T00:49:06Z,42.805,6.029,13.3009,4.60045,2470.624,2022-7-06T02:50:51Z
2022-07-06T00:52:09Z,42.805,6.029,13.3011,4.60046,2470.67,2022-7-06T02:53:54Z
2022-07-06T00:55:12Z,42.805,6.029,13.3011,4.60049,2470.646,2022-7-06T02:56:57Z
2022-07-06T00:58:15Z,42.805,6.029,13.3009,4.60051,2470.67,2022-7-06T03:00:00Z
2022-07-06T01:01:18Z,42.805,6.029,13.3013,4.60052,2470.661,2022-7-06T03:03:04Z
2022-07-06T01:04:21Z,42.805,6.029,13.3013,4.60047,2470.67,2022-7-06T03:06:07Z
2022-07-06T01:07:24Z,42.805,6.029,13.3013,4.60050,2470.661,2022-7-06T03:09:10Z
2022-07-06T01:10:28Z,42.805,6.029,13.3012,4.60047,2470.67,2022-7-06T03:12:13Z
2022-07-06T01:13:31Z,42.805,6.029,13.3014,4.60049,2470.67,2022-7-06T03:15:16Z
2022-07-06T01:16:34Z,42.805,6.029,13.3011,4.60051,2470.646,2022-7-06T03:18:19Z
2022-07-06T01:19:37Z,42.805,6.029,13.3010,4.60046,2470.684,2022-7-06T03:21:22Z
2022-07-06T01:22:40Z,42.805,6.029,13.3014,4.60047,2470.646,2022-7-06T03:24:25Z
2022-07-06T01:25:43Z,42.805,6.029,13.3014,4.60049,2470.67,2022-7-06T03:27:29Z
2022-07-06T01:28:46Z,42.805,6.029,13.3014,4.60049,2470.646,2022-7-06T03:30:32Z
2022-07-06T01:31:49Z,42.805,6.029,13.3011,4.60046,2470.624,2022-7-06T03:33:35Z
2022-07-06T01:34:52Z,42.805,6.029,13.3014,4.60048,2470.624,2022-7-06T03:36:38Z
2022-07-06T01:37:56Z,42.805,6.029,13.3015,4.60049,2470.624,2022-7-06T03:39:41Z
2022-07-06T01:40:59Z,42.805,6.029,13.3011,4.60047,2470.646,2022-7-06T03:42:44Z
2022-07-06T01:44:02Z,42.805,6.029,13.3011,4.60050,2470.684,2022-7-06T03:45:47Z
2022-07-06T01:47:05Z,42.805,6.029,13.3014,4.60049,2470.633,2022-7-06T03:48:50Z
2022-07-06T01:50:08Z,42.805,6.029,13.3013,4.60049,2470.637,2022-7-06T03:51:53Z
2022-07-06T01:53:11Z,42.805,6.029,13.3015,4.60054,2470.624,2022-7-06T03:54:57Z
2022-07-06T01:56:14Z,42.805,6.029,13.3014,4.60057,2470.661,2022-7-06T03:58:00Z
2022-07-06T01:59:17Z,42.805,6.029,13.3015,4.60056,2470.624,2022-7-06T04:01:03Z
2022-07-06T02:02:21Z,42.805,6.029,13.3019,4.60049,2470.6,2022-7-06T04:04:06Z
2022-07-06T02:05:24Z,42.805,6.029,13.3014,4.60049,2470.661,2022-7-06T04:07:09Z
2022-07-06T02:08:27Z,42.805,6.029,13.3014,4.60046,2470.661,2022-7-06T04:10:12Z
2022-07-06T02:11:30Z,42.805,6.029,13.3008,4.60049,2470.637,2022-7-06T04:13:15Z
2022-07-06T02:14:33Z,42.805,6.029,13.3014,4.60049,2470.646,2022-7-06T04:16:18Z
2022-07-06T02:17:36Z,42.805,6.029,13.3011,4.60046,2470.624,2022-7-06T04:19:21Z
2022-07-06T02:20:39Z,42.805,6.029,13.3006,4.60045,2470.624,2022-7-06T04:22:25Z
2022-07-06T02:23:42Z,42.805,6.029,13.3012,4.60050,2470.61,2022-7-06T04:25:28Z
2022-07-06T02:26:45Z,42.805,6.029,13.3015,4.60052,2470.624,2022-7-06T04:28:31Z
2022-07-06T02:29:49Z,42.805,6.029,13.3010,4.60046,2470.6,2022-7-06T04:31:34Z
2022-07-06T02:32:52Z,42.805,6.029,13.3012,4.60047,2470.624,2022-7-06T04:34:37Z
2022-07-06T02:35:55Z,42.805,6.029,13.3009,4.60054,2470.661,2022-7-06T04:37:40Z
2022-07-06T02:38:58Z,42.805,6.029,13.3014,4.60049,2470.646,2022-7-06T04:40:43Z
2022-07-06T02:42:01Z,42.805,6.029,13.3007,4.60046,2470.624,2022-7-06T04:43:46Z
2022-07-06T02:45:04Z,42.805,6.029,13.3011,4.60049,2470.61,2022-7-06T04:46:50Z
2022-07-06T02:48:07Z,42.805,6.029,13.3014,4.60052,2470.614,2022-7-06T04:49:53Z
2022-07-06T02:51:10Z,42.805,6.029,13.3014,4.60058,2470.637,2022-7-06T04:52:56Z
2022-07-06T02:54:13Z,42.805,6.029,13.3015,4.60053,2470.6,2022-7-06T04:55:59Z
2022-07-06T02:57:17Z,42.805,6.029,13.3012,4.60053,2470.624,2022-7-06T04:59:02Z
2022-07-06T03:00:20Z,42.805,6.029,13.3011,4.60052,2470.577,2022-7-06T05:02:05Z
2022-07-06T03:03:23Z,42.805,6.029,13.3011,4.60049,2470.624,2022-7-06T05:05:08Z
2022-07-06T03:06:26Z,42.805,6.029,13.3012,4.60046,2470.637,2022-7-06T05:08:11Z
2022-07-06T03:09:29Z,42.805,6.029,13.3011,4.60049,2470.614,2022-7-06T05:11:14Z
2022-07-06T03:12:32Z,42.805,6.029,13.3013,4.60050,2470.624,2022-7-06T05:14:18Z
2022-07-06T03:15:35Z,42.805,6.029,13.3011,4.60046,2470.6,2022-7-06T05:17:21Z
2022-07-06T03:18:38Z,42.805,6.029,13.3015,4.60054,2470.614,2022-7-06T05:20:24Z
2022-07-06T03:21:41Z,42.805,6.029,13.3008,4.60049,2470.614,2022-7-06T05:23:27Z
2022-07-06T03:24:45Z,42.805,6.029,13.3009,4.60046,2470.646,2022-7-06T05:26:30Z
2022-07-06T03:27:48Z,42.805,6.029,13.3015,4.60062,2470.61,2022-7-06T05:29:33Z
2022-07-06T03:30:51Z,42.805,6.029,13.3014,4.60050,2470.624,2022-7-06T05:32:36Z
2022-07-06T03:33:54Z,42.805,6.029,13.3014,4.60047,2470.637,2022-7-06T05:35:39Z
2022-07-06T03:36:57Z,42.805,6.029,13.3015,4.60054,2470.577,2022-7-06T05:38:43Z
2022-07-06T03:40:00Z,42.805,6.029,13.3010,4.60049,2470.577,2022-7-06T05:41:46Z
2022-07-06T03:43:03Z,42.805,6.029,13.3014,4.60046,2470.637,2022-7-06T05:44:49Z
2022-07-06T03:46:06Z,42.805,6.029,13.3010,4.60047,2470.6,2022-7-06T05:47:52Z
2022-07-06T03:49:10Z,42.805,6.029,13.3024,4.60061,2470.539,2022-7-06T05:50:55Z
2022-07-06T03:52:13Z,42.805,6.029,13.3012,4.60049,2470.624,2022-7-06T05:53:58Z
2022-07-06T03:55:16Z,42.805,6.029,13.3011,4.60050,2470.6,2022-7-06T05:57:01Z
2022-07-06T03:58:19Z,42.805,6.029,13.3012,4.60052,2470.591,2022-7-06T06:00:04Z
2022-07-06T04:01:22Z,42.805,6.029,13.3011,4.60050,2470.586,2022-7-06T06:03:07Z
2022-07-06T04:04:25Z,42.805,6.029,13.3012,4.60046,2470.614,2022-7-06T06:06:11Z
2022-07-06T04:07:28Z,42.805,6.029,13.3019,4.60055,2470.53,2022-7-06T06:09:14Z
2022-07-06T04:10:31Z,42.805,6.029,13.3016,4.60052,2470.591,2022-7-06T06:12:17Z
2022-07-06T04:13:34Z,42.805,6.029,13.3015,4.60054,2470.6,2022-7-06T06:15:20Z
2022-07-06T04:16:38Z,42.805,6.029,13.3012,4.60054,2470.591,2022-7-06T06:18:23Z
2022-07-06T04:19:41Z,42.805,6.029,13.3014,4.60059,2470.591,2022-7-06T06:21:26Z
2022-07-06T04:22:44Z,42.805,6.029,13.3014,4.60062,2470.577,2022-7-06T06:24:29Z
2022-07-06T04:25:47Z,42.805,6.029,13.3021,4.60057,2470.577,2022-7-06T06:27:32Z
2022-07-06T04:28:50Z,42.805,6.029,13.3013,4.60059,2470.577,2022-7-06T06:30:35Z
2022-07-06T04:31:53Z,42.805,6.029,13.3015,4.60049,2470.553,2022-7-06T06:33:39Z
2022-07-06T04:34:56Z,42.805,6.029,13.3017,4.60064,2470.577,2022-7-06T06:36:42Z
2022-07-06T04:37:59Z,42.805,6.029,13.3015,4.60054,2470.567,2022-7-06T06:39:45Z
2022-07-06T04:41:03Z,42.805,6.029,13.3011,4.60050,2470.553,2022-7-06T06:42:48Z
2022-07-06T04:44:06Z,42.805,6.029,13.3014,4.60050,2470.6,2022-7-06T06:45:51Z
2022-07-06T04:47:09Z,42.805,6.029,13.3011,4.60051,2470.591,2022-7-06T06:48:54Z
2022-07-06T04:50:12Z,42.805,6.029,13.3015,4.60068,2470.553,2022-7-06T06:51:57Z
2022-07-06T04:53:15Z,42.805,6.029,13.3014,4.60056,2470.614,2022-7-06T06:55:00Z
2022-07-06T04:56:18Z,42.805,6.029,13.3010,4.60050,2470.553,2022-7-06T06:58:04Z
2022-07-06T04:59:21Z,42.805,6.029,13.3014,4.60049,2470.553,2022-7-06T07:01:07Z
2022-07-06T05:02:24Z,42.805,6.029,13.3019,4.60057,2470.553,2022-7-06T07:04:10Z
2022-07-06T05:05:27Z,42.805,6.029,13.3013,4.60052,2470.553,2022-7-06T07:07:13Z
2022-07-06T05:08:31Z,42.805,6.029,13.3018,4.60057,2470.553,2022-7-06T07:10:16Z
2022-07-06T05:11:34Z,42.805,6.029,13.3016,4.60064,2470.553,2022-7-06T07:13:19Z
2022-07-06T05:14:37Z,42.805,6.029,13.3026,4.60067,2470.53,2022-7-06T07:16:22Z
2022-07-06T05:17:40Z,42.805,6.029,13.3011,4.60056,2470.53,2022-7-06T07:19:25Z
2022-07-06T05:20:43Z,42.805,6.029,13.3020,4.60072,2470.553,2022-7-06T07:22:28Z
2022-07-06T05:23:46Z,42.805,6.029,13.3014,4.60049,2470.53,2022-7-06T07:25:32Z
2022-07-06T05:26:49Z,42.805,6.029,13.3011,4.60054,2470.591,2022-7-06T07:28:35Z
2022-07-06T05:29:52Z,42.805,6.029,13.3014,4.60050,2470.53,2022-7-06T07:31:38Z
2022-07-06T05:32:56Z,42.805,6.029,13.3014,4.60052,2470.544,2022-7-06T07:34:41Z
2022-07-06T05:35:59Z,42.805,6.029,13.3015,4.60060,2470.567,2022-7-06T07:37:44Z
2022-07-06T05:39:02Z,42.805,6.029,13.3019,4.60056,2470.53,2022-7-06T07:40:47Z
2022-07-06T05:42:05Z,42.805,6.029,13.3018,4.60056,2470.507,2022-7-06T07:43:50Z
2022-07-06T05:45:08Z,42.805,6.029,13.3013,4.60052,2470.53,2022-7-06T07:46:53Z
2022-07-06T05:48:11Z,42.805,6.029,13.3015,4.60062,2470.553,2022-7-06T07:49:56Z
2022-07-06T05:51:14Z,42.805,6.029,13.3021,4.60057,2470.53,2022-7-06T07:53:00Z
2022-07-06T05:54:17Z,42.805,6.029,13.3015,4.60056,2470.544,2022-7-06T07:56:03Z
2022-07-06T05:57:20Z,42.805,6.029,13.3014,4.60064,2470.567,2022-7-06T07:59:06Z
2022-07-06T06:00:24Z,42.805,6.029,13.3011,4.60049,2470.53,2022-7-06T08:02:09Z
2022-07-06T06:03:27Z,42.805,6.029,13.3014,4.60056,2470.53,2022-7-06T08:05:12Z
2022-07-06T06:06:30Z,42.805,6.029,13.3013,4.60054,2470.53,2022-7-06T08:08:15Z
2022-07-06T06:09:33Z,42.805,6.029,13.3013,4.60057,2470.507,2022-7-06T08:11:18Z
2022-07-06T06:12:36Z,42.805,6.029,13.3014,4.60054,2470.544,2022-7-06T08:14:21Z
2022-07-06T06:15:39Z,42.805,6.029,13.3012,4.60048,2470.516,2022-7-06T08:17:25Z
2022-07-06T06:18:42Z,42.805,6.029,13.3016,4.60064,2470.553,2022-7-06T08:20:28Z
2022-07-06T06:21:45Z,42.805,6.029,13.3019,4.60069,2470.53,2022-7-06T08:23:31Z
2022-07-06T06:24:48Z,42.805,6.029,13.3013,4.60060,2470.53,2022-7-06T08:26:34Z
2022-07-06T06:27:52Z,42.805,6.029,13.3019,4.60069,2470.507,2022-7-06T08:29:37Z
2022-07-06T06:30:55Z,42.805,6.029,13.3026,4.60068,2470.553,2022-7-06T08:32:40Z
2022-07-06T06:33:58Z,42.805,6.029,13.3019,4.60069,2470.544,2022-7-06T08:35:43Z
2022-07-06T06:37:01Z,42.805,6.029,13.3020,4.60067,2470.53,2022-7-06T08:38:46Z
2022-07-06T06:40:04Z,42.805,6.029,13.3016,4.60076,2470.507,2022-7-06T08:41:49Z
2022-07-06T06:43:07Z,42.805,6.029,13.3022,4.60063,2470.53,2022-7-06T08:44:53Z
2022-07-06T06:46:10Z,42.805,6.029,13.3019,4.60052,2470.507,2022-7-06T08:47:56Z
2022-07-06T06:49:13Z,42.805,6.029,13.3014,4.60055,2470.474,2022-7-06T08:50:59Z
2022-07-06T06:52:17Z,42.805,6.029,13.3025,4.60065,2470.53,2022-7-06T08:54:02Z
2022-07-06T06:55:20Z,42.805,6.029,13.3015,4.60051,2470.544,2022-7-06T08:57:05Z
2022-07-06T06:58:23Z,42.805,6.029,13.3015,4.60062,2470.553,2022-7-06T09:00:08Z
2022-07-06T07:01:26Z,42.805,6.029,13.3013,4.60054,2470.544,2022-7-06T09:03:11Z
2022-07-06T07:04:29Z,42.805,6.029,13.3021,4.60067,2470.52,2022-7-06T09:06:14Z
2022-07-06T07:07:32Z,42.805,6.029,13.3015,4.60056,2470.516,2022-7-06T09:09:17Z
2022-07-06T07:10:35Z,42.805,6.029,13.3015,4.60052,2470.567,2022-7-06T09:12:21Z
2022-07-06T07:13:38Z,42.805,6.029,13.3015,4.60067,2470.567,2022-7-06T09:15:24Z
2022-07-06T07:16:41Z,42.805,6.029,13.3020,4.60067,2470.507,2022-7-06T09:18:27Z
2022-07-06T07:19:45Z,42.805,6.029,13.3019,4.60056,2470.507,2022-7-06T09:21:30Z
2022-07-06T07:22:48Z,42.805,6.029,13.3019,4.60055,2470.507,2022-7-06T09:24:33Z
2022-07-06T07:25:51Z,42.805,6.029,13.3015,4.60053,2470.53,2022-7-06T09:27:36Z
2022-07-06T07:28:54Z,42.805,6.029,13.3011,4.60052,2470.507,2022-7-06T09:30:39Z
2022-07-06T07:31:57Z,42.805,6.029,13.3015,4.60053,2470.483,2022-7-06T09:33:42Z
2022-07-06T07:35:00Z,42.805,6.029,13.3024,4.60066,2470.567,2022-7-06T09:36:46Z
2022-07-06T07:38:03Z,42.805,6.029,13.3014,4.60066,2470.507,2022-7-06T09:39:49Z
2022-07-06T07:41:06Z,42.805,6.029,13.3015,4.60052,2470.567,2022-7-06T09:42:52Z
2022-07-06T07:44:09Z,42.805,6.029,13.3019,4.60069,2470.507,2022-7-06T09:45:55Z
2022-07-06T07:47:13Z,42.805,6.029,13.3023,4.60068,2470.544,2022-7-06T09:48:58Z
2022-07-06T07:50:16Z,42.805,6.029,13.3017,4.60068,2470.53,2022-7-06T09:52:01Z
2022-07-06T07:53:19Z,42.805,6.029,13.3021,4.60069,2470.544,2022-7-06T09:55:04Z
2022-07-06T07:56:22Z,42.805,6.029,13.3020,4.60049,2470.52,2022-7-06T09:58:07Z
2022-07-06T07:59:25Z,42.805,6.029,13.3031,4.60074,2470.553,2022-7-06T10:01:10Z
2022-07-06T08:02:28Z,42.805,6.029,13.3026,4.60067,2470.507,2022-7-06T10:04:14Z
2022-07-06T08:05:31Z,42.805,6.029,13.3014,4.60064,2470.544,2022-7-06T10:07:17Z
2022-07-06T08:08:34Z,42.805,6.029,13.3015,4.60057,2470.53,2022-7-06T10:10:20Z
2022-07-06T08:11:37Z,42.805,6.029,13.3016,4.60060,2470.52,2022-7-06T10:13:23Z
2022-07-06T08:14:41Z,42.805,6.029,13.3014,4.60064,2470.553,2022-7-06T10:16:26Z
2022-07-06T08:17:44Z,42.805,6.029,13.3019,4.60061,2470.53,2022-7-06T10:19:29Z
2022-07-06T08:20:47Z,42.805,6.029,13.3021,4.60072,2470.507,2022-7-06T10:22:32Z
2022-07-06T08:23:50Z,42.805,6.029,13.3011,4.60063,2470.553,2022-7-06T10:25:35Z
2022-07-06T08:26:53Z,42.805,6.029,13.3034,4.60071,2470.553,2022-7-06T10:28:39Z
2022-07-06T08:29:56Z,42.805,6.029,13.3010,4.60058,2470.53,2022-7-06T10:31:42Z
2022-07-06T08:32:59Z,42.805,6.029,13.3015,4.60067,2470.53,2022-7-06T10:34:45Z
2022-07-06T08:36:02Z,42.805,6.029,13.3018,4.60054,2470.553,2022-7-06T10:37:48Z
2022-07-06T08:39:06Z,42.805,6.029,13.3023,4.60069,2470.544,2022-7-06T10:40:51Z
2022-07-06T08:42:09Z,42.805,6.029,13.3021,4.60070,2470.553,2022-7-06T10:43:54Z
2022-07-06T08:45:12Z,42.805,6.029,13.3020,4.60054,2470.53,2022-7-06T10:46:57Z
2022-07-06T08:48:15Z,42.805,6.029,13.3021,4.60069,2470.53,2022-7-06T10:50:00Z
2022-07-06T08:51:18Z,42.805,6.029,13.3011,4.60053,2470.553,2022-7-06T10:53:04Z
2022-07-06T08:54:21Z,42.805,6.029,13.3018,4.60060,2470.553,2022-7-06T10:56:07Z
2022-07-06T08:57:24Z,42.805,6.029,13.3010,4.60051,2470.544,2022-7-06T10:59:10Z
2022-07-06T09:00:27Z,42.805,6.029,13.3015,4.60060,2470.53,2022-7-06T11:02:13Z
2022-07-06T09:03:31Z,42.805,6.029,13.3017,4.60061,2470.553,2022-7-06T11:05:16Z
2022-07-06T09:06:34Z,42.805,6.029,13.3013,4.60069,2470.53,2022-7-06T11:08:19Z
2022-07-06T09:09:37Z,42.805,6.029,13.3015,4.60071,2470.553,2022-7-06T11:11:22Z
2022-07-06T09:12:40Z,42.805,6.029,13.3024,4.60075,2470.553,2022-7-06T11:14:25Z
2022-07-06T09:15:43Z,42.805,6.029,13.3034,4.60077,2470.553,2022-7-06T11:17:28Z
2022-07-06T09:18:46Z,42.805,6.029,13.3019,4.60080,2470.567,2022-7-06T11:20:32Z
2022-07-06T09:21:49Z,42.805,6.029,13.3023,4.60062,2470.553,2022-7-06T11:23:35Z
2022-07-06T09:24:52Z,42.805,6.029,13.3019,4.60069,2470.553,2022-7-06T11:26:38Z
2022-07-06T09:27:56Z,42.805,6.029,13.3015,4.60066,2470.6,2022-7-06T11:29:41Z
2022-07-06T09:30:59Z,42.805,6.029,13.3021,4.60062,2470.591,2022-7-06T11:32:44Z
2022-07-06T09:34:02Z,42.805,6.029,13.3020,4.60055,2470.567,2022-7-06T11:35:47Z
2022-07-06T09:37:05Z,42.805,6.029,13.3019,4.60069,2470.567,2022-7-06T11:38:50Z
2022-07-06T09:40:08Z,42.805,6.029,13.3019,4.60073,2470.567,2022-7-06T11:41:53Z
2022-07-06T09:43:11Z,42.805,6.029,13.3021,4.60067,2470.614,2022-7-06T11:44:57Z
2022-07-06T09:46:14Z,42.805,6.029,13.3022,4.60076,2470.577,2022-7-06T11:48:00Z
2022-07-06T09:49:17Z,42.805,6.029,13.3019,4.60072,2470.577,2022-7-06T11:51:03Z
2022-07-06T09:52:20Z,42.805,6.029,13.3014,4.60058,2470.624,2022-7-06T11:54:06Z
2022-07-06T09:55:24Z,42.805,6.029,13.3019,4.60067,2470.6,2022-7-06T11:57:09Z
2022-07-06T09:58:27Z,42.805,6.029,13.3015,4.60054,2470.6,2022-7-06T12:00:12Z
2022-07-06T10:01:30Z,42.805,6.029,13.3012,4.60051,2470.6,2022-7-06T12:03:15Z
2022-07-06T10:04:33Z,42.805,6.029,13.3014,4.60050,2470.591,2022-7-06T12:06:18Z
2022-07-06T10:07:36Z,42.805,6.029,13.3024,4.60071,2470.577,2022-7-06T12:09:21Z
2022-07-06T10:10:39Z,42.805,6.029,13.3019,4.60060,2470.591,2022-7-06T12:12:25Z
2022-07-06T10:13:42Z,42.805,6.029,13.3026,4.60068,2470.53,2022-7-06T12:15:28Z
2022-07-06T10:16:45Z,42.805,6.029,13.3019,4.60075,2470.6,2022-7-06T12:18:31Z
2022-07-06T10:19:49Z,42.805,6.029,13.3020,4.60064,2470.577,2022-7-06T12:21:34Z
2022-07-06T10:22:52Z,42.805,6.029,13.3018,4.60057,2470.591,2022-7-06T12:24:37Z
2022-07-06T10:25:55Z,42.805,6.029,13.3014,4.60069,2470.563,2022-7-06T12:27:40Z
2022-07-06T10:28:58Z,42.805,6.029,13.3021,4.60067,2470.567,2022-7-06T12:30:43Z
2022-07-06T10:32:01Z,42.805,6.029,13.3018,4.60059,2470.624,2022-7-06T12:33:46Z
2022-07-06T10:35:04Z,42.805,6.029,13.3021,4.60063,2470.586,2022-7-06T12:36:50Z
2022-07-06T10:38:07Z,42.805,6.029,13.3022,4.60074,2470.6,2022-7-06T12:39:53Z
2022-07-06T10:41:10Z,42.805,6.029,13.3014,4.60058,2470.591,2022-7-06T12:42:56Z
2022-07-06T10:44:14Z,42.805,6.029,13.3015,4.60057,2470.637,2022-7-06T12:45:59Z
2022-07-06T10:47:17Z,42.805,6.029,13.3014,4.60054,2470.6,2022-7-06T12:49:02Z
2022-07-06T10:50:20Z,42.805,6.029,13.3021,4.60063,2470.6,2022-7-06T12:52:05Z
2022-07-06T10:53:23Z,42.805,6.029,13.3021,4.60072,2470.6,2022-7-06T12:55:08Z
2022-07-06T10:56:26Z,42.805,6.029,13.3019,4.60070,2470.577,2022-7-06T12:58:11Z
2022-07-06T10:59:29Z,42.805,6.029,13.3024,4.60079,2470.567,2022-7-06T13:01:15Z
2022-07-06T11:02:32Z,42.805,6.029,13.3023,4.60069,2470.591,2022-7-06T13:04:18Z
2022-07-06T11:05:35Z,42.805,6.029,13.3026,4.60077,2470.6,2022-7-06T13:07:21Z
2022-07-06T11:08:38Z,42.805,6.029,13.3017,4.60058,2470.553,2022-7-06T13:10:24Z
2022-07-06T11:11:42Z,42.805,6.029,13.3023,4.60072,2470.591,2022-7-06T13:13:27Z
2022-07-06T11:14:45Z,42.805,6.029,13.3023,4.60069,2470.577,2022-7-06T13:16:30Z
2022-07-06T11:17:48Z,42.805,6.029,13.3021,4.60069,2470.614,2022-7-06T13:19:33Z
2022-07-06T11:20:51Z,42.805,6.029,13.3022,4.60073,2470.6,2022-7-06T13:22:36Z
2022-07-06T11:23:54Z,42.805,6.029,13.3015,4.60075,2470.563,2022-7-06T13:25:40Z
2022-07-06T11:26:57Z,42.805,6.029,13.3019,4.60072,2470.577,2022-7-06T13:28:43Z
2022-07-06T11:30:00Z,42.805,6.029,13.3019,4.60069,2470.577,2022-7-06T13:31:46Z
2022-07-06T11:33:03Z,42.805,6.029,13.3021,4.60080,2470.614,2022-7-06T13:34:49Z
2022-07-06T11:36:07Z,42.805,6.029,13.3016,4.60069,2470.577,2022-7-06T13:37:52Z
2022-07-06T11:39:10Z,42.805,6.029,13.3018,4.60072,2470.577,2022-7-06T13:40:55Z
2022-07-06T11:42:13Z,42.805,6.029,13.3022,4.60070,2470.591,2022-7-06T13:43:58Z
2022-07-06T11:45:16Z,42.805,6.029,13.3030,4.60077,2470.6,2022-7-06T13:47:01Z
2022-07-06T11:48:19Z,42.805,6.029,13.3019,4.60060,2470.591,2022-7-06T13:50:04Z
2022-07-06T11:51:22Z,42.805,6.029,13.3014,4.60057,2470.614,2022-7-06T13:53:08Z
2022-07-06T11:54:25Z,42.805,6.029,13.3014,4.60053,2470.6,2022-7-06T13:56:11Z
2022-07-06T11:57:28Z,42.805,6.029,13.3019,4.60068,2470.6,2022-7-06T13:59:14Z
2022-07-06T12:00:32Z,42.805,6.029,13.3014,4.60067,2470.614,2022-7-06T14:02:17Z
2022-07-06T12:03:35Z,42.805,6.029,13.3024,4.60066,2470.577,2022-7-06T14:05:20Z
2022-07-06T12:06:38Z,42.805,6.029,13.3024,4.60064,2470.577,2022-7-06T14:08:23Z
2022-07-06T12:09:41Z,42.805,6.029,13.3030,4.60076,2470.553,2022-7-06T14:11:26Z
2022-07-06T12:12:44Z,42.805,6.029,13.3016,4.60058,2470.577,2022-7-06T14:14:29Z
2022-07-06T12:15:47Z,42.805,6.029,13.3011,4.60052,2470.567,2022-7-06T14:17:33Z
2022-07-06T12:18:50Z,42.805,6.029,13.3015,4.60063,2470.577,2022-7-06T14:20:36Z
2022-07-06T12:21:53Z,42.805,6.029,13.3018,4.60060,2470.577,2022-7-06T14:23:39Z
2022-07-06T12:24:57Z,42.805,6.029,13.3023,4.60074,2470.577,2022-7-06T14:26:42Z
2022-07-06T12:28:00Z,42.805,6.029,13.3026,4.60070,2470.553,2022-7-06T14:29:45Z
2022-07-06T12:31:03Z,42.805,6.029,13.3017,4.60074,2470.591,2022-7-06T14:32:48Z
2022-07-06T12:34:06Z,42.805,6.029,13.3015,4.60068,2470.637,2022-7-06T14:35:51Z
2022-07-06T12:37:09Z,42.805,6.029,13.3018,4.60053,2470.6,2022-7-06T14:38:54Z
2022-07-06T12:40:12Z,42.805,6.029,13.3024,4.60068,2470.614,2022-7-06T14:41:58Z
2022-07-06T12:43:15Z,42.805,6.029,13.3021,4.60079,2470.614,2022-7-06T14:45:01Z
2022-07-06T12:46:18Z,42.805,6.029,13.3023,4.60062,2470.624,2022-7-06T14:48:04Z
2022-07-06T12:49:21Z,42.805,6.029,13.3023,4.60067,2470.553,2022-7-06T14:51:07Z
2022-07-06T12:52:25Z,42.805,6.029,13.3021,4.60067,2470.577,2022-7-06T14:54:10Z
2022-07-06T12:55:28Z,42.805,6.029,13.3014,4.60049,2470.6,2022-7-06T14:57:13Z
2022-07-06T12:58:31Z,42.805,6.029,13.3024,4.60064,2470.6,2022-7-06T15:00:16Z
2022-07-06T13:01:34Z,42.805,6.029,13.3016,4.60064,2470.567,2022-7-06T15:03:19Z
2022-07-06T13:04:37Z,42.805,6.029,13.3019,4.60069,2470.577,2022-7-06T15:06:23Z
2022-07-06T13:07:40Z,42.805,6.029,13.3020,4.60060,2470.553,2022-7-06T15:09:26Z
2022-07-06T13:10:43Z,42.805,6.029,13.3024,4.60077,2470.614,2022-7-06T15:12:29Z
2022-07-06T13:13:46Z,42.805,6.029,13.3023,4.60072,2470.577,2022-7-06T15:15:32Z
2022-07-06T13:16:50Z,42.805,6.029,13.3014,4.60069,2470.591,2022-7-06T15:18:35Z
2022-07-06T13:19:53Z,42.805,6.029,13.3019,4.60069,2470.6,2022-7-06T15:21:38Z
2022-07-06T13:22:56Z,42.805,6.029,13.3020,4.60072,2470.577,2022-7-06T15:24:41Z
2022-07-06T13:25:59Z,42.805,6.029,13.3018,4.60072,2470.614,2022-7-06T15:27:44Z
2022-07-06T13:29:02Z,42.805,6.029,13.3014,4.60058,2470.591,2022-7-06T15:30:47Z
2022-07-06T13:32:05Z,42.805,6.029,13.3014,4.60053,2470.577,2022-7-06T15:33:51Z
2022-07-06T13:35:08Z,42.805,6.029,13.3028,4.60073,2470.614,2022-7-06T15:36:54Z
2022-07-06T13:38:11Z,42.805,6.029,13.3015,4.60057,2470.553,2022-7-06T15:39:57Z
2022-07-06T13:41:15Z,42.805,6.029,13.3018,4.60067,2470.53,2022-7-06T15:43:00Z
2022-07-06T13:44:18Z,42.805,6.029,13.3019,4.60056,2470.53,2022-7-06T15:46:03Z
2022-07-06T13:47:21Z,42.805,6.029,13.3025,4.60075,2470.6,2022-7-06T15:49:06Z
2022-07-06T13:50:24Z,42.805,6.029,13.3020,4.60066,2470.614,2022-7-06T15:52:09Z
2022-07-06T13:53:27Z,42.805,6.029,13.3021,4.60067,2470.577,2022-7-06T15:55:12Z
2022-07-06T13:56:30Z,42.805,6.029,13.3016,4.60070,2470.553,2022-7-06T15:58:16Z
2022-07-06T13:59:33Z,42.805,6.029,13.3028,4.60061,2470.577,2022-7-06T16:01:19Z
2022-07-06T14:02:36Z,42.805,6.029,13.3019,4.60064,2470.577,2022-7-06T16:04:22Z
2022-07-06T14:05:39Z,42.805,6.029,13.3014,4.60052,2470.577,2022-7-06T16:07:25Z
2022-07-06T14:08:43Z,42.805,6.029,13.3013,4.60059,2470.637,2022-7-06T16:10:28Z
2022-07-06T14:11:46Z,42.805,6.029,13.3011,4.60051,2470.591,2022-7-06T16:13:31Z
2022-07-06T14:14:49Z,42.805,6.029,13.3017,4.60058,2470.577,2022-7-06T16:16:34Z
2022-07-06T14:17:52Z,42.805,6.029,13.3019,4.60070,2470.553,2022-7-06T16:19:37Z
2022-07-06T14:20:55Z,42.805,6.029,13.3024,4.60064,2470.567,2022-7-06T16:22:41Z
2022-07-06T14:23:58Z,42.805,6.029,13.3024,4.60063,2470.553,2022-7-06T16:25:44Z
2022-07-06T14:27:01Z,42.805,6.029,13.3016,4.60058,2470.553,2022-7-06T16:28:47Z
2022-07-06T14:30:04Z,42.805,6.029,13.3021,4.60067,2470.53,2022-7-06T16:31:50Z
2022-07-06T14:33:08Z,42.805,6.029,13.3021,4.60067,2470.544,2022-7-06T16:34:53Z
2022-07-06T14:36:11Z,42.805,6.029,13.3013,4.60054,2470.553,2022-7-06T16:37:56Z
2022-07-06T14:39:14Z,42.805,6.029,13.3017,4.60057,2470.553,2022-7-06T16:40:59Z
2022-07-06T14:42:17Z,42.805,6.029,13.3015,4.60050,2470.553,2022-7-06T16:44:02Z
2022-07-06T14:45:20Z,42.805,6.029,13.3026,4.60064,2470.544,2022-7-06T16:47:06Z
2022-07-06T14:48:23Z,42.805,6.029,13.3026,4.60065,2470.553,2022-7-06T16:50:09Z
2022-07-06T14:51:26Z,42.805,6.029,13.3014,4.60059,2470.553,2022-7-06T16:53:12Z
2022-07-06T14:54:29Z,42.805,6.029,13.3020,4.60057,2470.553,2022-7-06T16:56:15Z
2022-07-06T14:57:33Z,42.805,6.029,13.3017,4.60058,2470.53,2022-7-06T16:59:18Z
2022-07-06T15:00:36Z,42.805,6.029,13.3018,4.60053,2470.591,2022-7-06T17:02:21Z
2022-07-06T15:03:39Z,42.805,6.029,13.3015,4.60051,2470.553,2022-7-06T17:05:24Z
2022-07-06T15:06:42Z,42.805,6.029,13.3021,4.60057,2470.567,2022-7-06T17:08:27Z
2022-07-06T15:09:45Z,42.805,6.029,13.3014,4.60049,2470.553,2022-7-06T17:11:30Z
2022-07-06T15:12:48Z,42.805,6.029,13.3024,4.60064,2470.544,2022-7-06T17:14:34Z